Location: Prairie Dale
(45.6972°N, 104.5033°W)
Time: 03:34:15
(UTC+00:00)

AO-109 - Pass Details

Date: 03 July 2022
Orbit: 469 x 506 km, 60.7° (Epoch: 14 August)

Event Time Altitude Azimuth Distance (km) Brightness Sun altitude
Exits shadow 09:39:56 12° 173° (S) 1,502 ? -12.6°
Maximum altitude 09:42:31 24° 122° (ESE) 1,027 ? -12.3°
Drops below altitude 10° 09:45:34 10° 67° (ENE) 1,667 ? -12.0°
Sets 09:48:00 0° 53° (NE) 2,561 ? -11.7°
